Waarnemingen

Advertentie
Mijn weer
Lanveoc Poulmic, Frankrijk (7109): temperatuur & dauwpunt: 20.05.2019 15:00:00 - 26.05.2019 15:00:00 (CEST)Lanveoc Poulmic, Frankrijk (7109): temperatuur 5cm: 20.05.2019 15:00:00 - 26.05.2019 15:00:00 (CEST)Lanveoc Poulmic, Frankrijk (7109): windsnelheid & windstoten: 20.05.2019 15:00:00 - 26.05.2019 15:00:00 (CEST)Lanveoc Poulmic, Frankrijk (7109): windrichting: 20.05.2019 15:00:00 - 26.05.2019 15:00:00 (CEST)Lanveoc Poulmic, Frankrijk (7109): luchtdruk: 20.05.2019 15:00:00 - 26.05.2019 15:00:00 (CEST)Lanveoc Poulmic, Frankrijk (7109): zicht: 20.05.2019 15:00:00 - 26.05.2019 15:00:00 (CEST)Lanveoc Poulmic, Frankrijk (7109): neerslag: 20.05.2019 15:00:00 - 26.05.2019 15:00:00 (CEST)
Datum & Tijd tt [°C] td [°C] tt 5cm [°C] ff [km/u] ff [kn] fx [km/u] fx [kn] dd ppp [hPa] vv [km] rr [mm]
26.05.2019 15:00:00 15,1 12,0 13,0 20 11 32 17 W 1019,9 18 0,0
26.05.2019 14:00:00 14,6 11,9 13,6 22 12 31 17 W 1020,2 7 0,0
26.05.2019 13:00:00 14,7 11,8 13,0 16 9 29 15 W 1020,6 16 0,0
26.05.2019 12:00:00 15,4 11,6 13,3 18 10 32 17 W 1020,7 41 0,0
26.05.2019 11:00:00 13,8 12,2 11,9 22 12 31 17 W 1020,9 16 0,0
26.05.2019 10:00:00 13,5 12,2 12,4 15 8 26 14 W 1021,1 4,5 0,0
26.05.2019 09:00:00 13,1 12,3 11,1 15 8 24 13 W 1021,2 12 0,0
26.05.2019 08:00:00 12,7 11,8 10,5 10 6 21 11 W 1021,1 6 0,0
26.05.2019 07:00:00 12,5 11,4 9,9 9 5 22 12 W 1021,1 35 0,0
26.05.2019 06:00:00 12,6 11,7 10,2 11 6 22 12 WNW 1021,2 38 0,2
26.05.2019 05:00:00 12,6 11,5 10,6 9 5 14 8 W 1021,3 2,5 0,0
26.05.2019 04:00:00 12,6 11,2 10,9 9 5 16 8 WZW 1021,6 18 0,0
26.05.2019 03:00:00 12,7 11,1 10,9 9 5 17 9 W 1021,8 20 0,0
26.05.2019 02:00:00 13,1 11,2 10,9 11 6 17 9 W 1022,4 20 0,0
26.05.2019 01:00:00 13,3 10,3 11,5 7 4 16 9 W 1022,8 46 0,0
26.05.2019 00:00:00 13,4 11,6 12,9 12 6 18 10 WNW 1023,3 19 0,0
25.05.2019 23:00:00 13,6 11,6 11,8 11 6 23 13 WNW 1023,2 30 0,0
25.05.2019 22:00:00 14,0 11,9 12,0 15 8 22 12 WNW 1022,8 23 0,0
25.05.2019 21:00:00 13,9 12,6 12,4 13 7 23 12 NW 1022,8 13 0,0
25.05.2019 20:00:00 14,7 12,9 13,7 15 8 24 13 W 1022,6 14 0,0
25.05.2019 19:00:00 15,4 12,9 12,7 16 8 27 15 W 1022,6 10 0,0
25.05.2019 18:00:00 15,6 12,0 16,4 20 11 29 15 W 1022,6 36 0,0
25.05.2019 17:00:00 17,2 11,2 16,4 18 10 28 15 W 1022,6 21 0,0
25.05.2019 16:00:00 17,9 11,7 17,4 16 9 40 22 W 1022,6 20 0,0
25.05.2019 15:00:00 18,0 12,7 17,6 18 10 27 14 WNW 1022,8 20 0,0
25.05.2019 14:00:00 17,5 12,4 18,3 18 10 26 14 WNW 1023,1 20 0,0
25.05.2019 13:00:00 16,9 11,0 13,8 13 7 21 12 W 1023,2 18 0,0
25.05.2019 12:00:00 16,4 11,3 15,0 13 7 22 12 W 1023,2 20 0,0
25.05.2019 11:00:00 15,4 11,6 15,6 13 7 22 12 W 1023,3 18 0,0
25.05.2019 10:00:00 14,0 11,3 11,1 12 6 22 12 WNW 1023,2 19 0,0
25.05.2019 09:00:00 13,7 11,6 11,2 14 7 21 11 WNW 1023,0 18 0,0
25.05.2019 08:00:00 12,9 11,3 11,1 10 6 19 11 WNW 1022,8 14 0,0
25.05.2019 07:00:00 12,4 10,8 10,4 11 6 18 10 NW 1022,6 15 0,0
25.05.2019 06:00:00 12,7 10,8 10,7 14 7 23 13 NW 1022,3 20 0,0
25.05.2019 05:00:00 12,8 9,4 12,2 13 7 24 13 NW 1022,3 37 0,0
25.05.2019 04:00:00 12,8 10,5 11,5 14 8 28 15 NW 1022,5 20 0,0
25.05.2019 03:00:00 12,9 9,9 11,4 14 7 25 14 NNW 1022,8 34 0,0
25.05.2019 02:00:00 12,8 10,0 10,3 14 8 23 13 NW 1022,8 38 0,0
25.05.2019 01:00:00 12,9 10,1 11,0 15 8 25 13 NW 1022,9 41 0,0
25.05.2019 00:00:00 13,0 9,4 11,3 15 8 30 16 NNW 1022,9 60 0,0
24.05.2019 23:00:00 12,9 8,8 11,4 16 9 26 14 N 1022,8 60 0,0
24.05.2019 22:00:00 13,3 9,2 11,4 16 9 29 16 NNW 1022,4 54 0,0
24.05.2019 21:00:00 13,6 9,8 11,9 17 9 28 15 NNW 1022,2 50 0,0
24.05.2019 20:00:00 14,2 9,8 13,2 16 9 26 14 NNW 1021,7 46 0,0
24.05.2019 19:00:00 15,2 11,0 13,4 18 10 31 17 NNW 1021,8 44 0,0
24.05.2019 18:00:00 16,7 10,8 16,8 22 12 30 16 NNW 1021,8 41 0,0
24.05.2019 17:00:00 16,6 11,3 19,3 20 11 29 16 NNW 1021,7 32 0,0
24.05.2019 16:00:00 18,1 11,9 20,3 22 12 29 16 NNW 1021,5 31 0,0
24.05.2019 15:00:00 17,4 10,7 20,7 16 9 24 13 NNW 1021,6 20 0,0
24.05.2019 14:00:00 17,3 10,9 17,8 15 8 29 16 NNW 1021,7 19 0,0
24.05.2019 13:00:00 15,8 10,3 15,9 16 8 24 13 NW 1021,8 49 0,0
24.05.2019 12:00:00 15,4 9,7 15,6 15 8 24 13 NW 1021,8 47 0,0
24.05.2019 11:00:00 14,8 10,0 14,5 10 5 22 12 N 1021,5 33 0,0
24.05.2019 10:00:00 14,3 10,7 15,2 10 5 17 9 N 1021,5 41 0,0
24.05.2019 09:00:00 13,0 10,5 14,2 10 6 19 10 N 1021,2 11 0,0
24.05.2019 08:00:00 11,9 10,5 10,2 12 7 20 11 N 1020,8 11 0,0
24.05.2019 07:00:00 10,7 9,8 7,3 13 7 20 11 NNW 1020,8 7 0,0
24.05.2019 06:00:00 9,5 8,7 7,4 6 3 15 8 N 1020,2 4,0 0,0
24.05.2019 05:00:00 9,5 8,7 6,7 7 4 12 7 N 1019,6 3,2 0,0
24.05.2019 04:00:00 9,3 8,5 7,6 7 4 11 6 N 1019,6 2,6 0,0
24.05.2019 03:00:00 9,9 9,0 8,3 9 5 14 7 N 1019,7 3,1 0,0
24.05.2019 02:00:00 10,5 9,1 9,0 8 5 15 8 N 1019,5 5 0,0
24.05.2019 01:00:00 11,0 8,9 10,0 8 5 17 9 NNO 1019,4 10 0,0
24.05.2019 00:00:00 11,4 8,1 9,7 10 5 19 10 NNO 1019,4 22 0,0
23.05.2019 23:00:00 11,1 7,4 10,0 9 5 16 9 N 1019,2 36 0,0
23.05.2019 22:00:00 12,6 6,2 12,3 10 5 16 9 N 1018,6 60 0,0
23.05.2019 21:00:00 15,2 7,2 13,5 12 7 19 10 N 1018,1 51 0,0
23.05.2019 20:00:00 16,2 7,9 15,1 14 7 26 14 NNW 1018,0 35 0,0
23.05.2019 19:00:00 18,5 7,9 19,9 15 8 19 11 WNW 1017,6 34 0,0
23.05.2019 18:00:00 19,1 6,9 21,6 6 3 17 9 W 1017,7 48 0,0
23.05.2019 17:00:00 18,8 6,6 20,4 10 5 17 9 NNW 1017,8 20 0,0
23.05.2019 16:00:00 18,1 7,8 20,1 14 7 37 20 NNW 1017,8 20 0,0
23.05.2019 15:00:00 17,9 9,3 18,0 8 5 15 8 NW 1018,0 30 0,0
23.05.2019 14:00:00 17,1 7,4 19,6 7 4 17 9 NW 1018,1 44 0,0
23.05.2019 13:00:00 18,6 9,1 20,6 6 4 15 8 NO 1018,1 20 0,0
23.05.2019 12:00:00 15,8 10,3 16,1 5 3 9 5 N 1018,5 47 0,0
23.05.2019 11:00:00 14,9 7,4 13,3 0 0 9 5 N 1018,6 56 0,0
23.05.2019 10:00:00 13,0 10,7 12,7 3 2 7 4 Z 1018,6 18 0,0
23.05.2019 09:00:00 12,9 10,8 10,3 0 0 3 2 N 1018,5 20 0,0
23.05.2019 08:00:00 10,0 9,2 7,4 0 0 5 3 N 1018,3 12 0,0
23.05.2019 07:00:00 9,8 9,2 3,5 0 0 5 3 N 1018,0 8 0,0
23.05.2019 06:00:00 9,4 8,6 3,3 0 0 5 3 N 1018,1 1,8 0,0
23.05.2019 05:00:00 9,0 7,9 3,4 4 2 7 4 O 1018,2 9 0,0
23.05.2019 04:00:00 9,4 8,3 3,5 0 0 6 4 N 1018,5 17 0,0
23.05.2019 03:00:00 8,8 6,9 3,7 0 0 0 0 N 1018,8 46 0,0
23.05.2019 02:00:00 10,2 8,0 5,0 0 0 2 1 N 1019,3 45 0,0
23.05.2019 01:00:00 11,5 8,9 7,0 4 2 7 4 W 1019,4 21 0,0
23.05.2019 00:00:00 11,9 9,3 8,0 4 2 9 5 W 1019,7 17 0,0
22.05.2019 23:00:00 12,6 9,4 10,1 8 5 11 6 W 1019,9 21 0,0
22.05.2019 22:00:00 13,5 8,3 12,0 9 5 13 7 W 1019,7 41 0,0
22.05.2019 21:00:00 14,4 8,3 12,9 9 5 14 8 WZW 1019,4 42 0,0
22.05.2019 20:00:00 16,3 7,8 13,5 9 5 18 10 WZW 1019,5 43 0,0
22.05.2019 19:00:00 18,0 7,4 19,8 12 6 22 12 WZW 1019,4 56 0,0
22.05.2019 18:00:00 18,4 7,2 22,2 14 7 24 13 ZW 1019,7 24 0,0
22.05.2019 17:00:00 18,5 7,3 23,2 17 9 33 18 ZW 1019,9 20 0,0
22.05.2019 16:00:00 19,9 7,9 21,2 18 10 29 16 ZZW 1020,0 30 0,0
22.05.2019 15:00:00 20,0 8,3 21,7 13 7 27 15 Z 1020,2 20 0,0
22.05.2019 14:00:00 19,3 8,3 23,5 13 7 24 13 ZZW 1020,4 38 0,0
22.05.2019 13:00:00 18,8 8,7 21,2 13 7 21 11 Z 1020,6 16 0,0
22.05.2019 12:00:00 18,0 9,6 18,2 8 4 15 8 ZZW 1020,7 19 0,0
22.05.2019 11:00:00 16,8 9,9 21,2 8 5 16 9 Z 1020,7 19 0,0
22.05.2019 10:00:00 15,5 8,7 18,5 6 3 13 7 Z 1020,9 20 0,0
22.05.2019 09:00:00 13,9 8,5 12,0 6 4 13 7 ZO 1020,7 19 0,0
22.05.2019 08:00:00 11,1 9,0 7,4 8 4 14 8 O 1020,5 10 0,0
22.05.2019 07:00:00 9,6 8,0 7,2 9 5 14 7 O 1020,3 9 0,0
22.05.2019 06:00:00 10,0 8,4 7,5 8 5 14 8 O 1020,5 9 0,0
22.05.2019 05:00:00 10,0 8,4 6,5 9 5 14 8 O 1020,9 13 0,0
22.05.2019 04:00:00 9,8 8,7 5,8 8 4 11 6 O 1021,0 5 0,0
22.05.2019 03:00:00 10,3 9,2 7,3 6 4 10 6 ONO 1021,3 5 0,0
22.05.2019 02:00:00 10,1 8,7 8,0 7 4 13 7 NO 1021,4 6 0,0
22.05.2019 01:00:00 11,4 9,0 9,6 10 5 15 8 ONO 1021,5 12 0,0
22.05.2019 00:00:00 11,4 9,0 9,1 9 5 14 8 NO 1021,7 17 0,0
21.05.2019 23:00:00 11,6 7,9 9,6 9 5 16 8 NNO 1021,6 35 0,0
21.05.2019 22:00:00 12,7 7,8 10,6 10 5 16 9 NNO 1021,3 54 0,0
21.05.2019 21:00:00 15,1 9,0 12,2 9 5 19 10 N 1020,7 35 0,0
21.05.2019 20:00:00 16,8 8,7 16,3 14 7 24 13 N 1020,6 20 0,0
21.05.2019 19:00:00 17,9 8,7 18,6 16 9 24 13 WNW 1020,5 31 0,0
21.05.2019 18:00:00 18,7 7,8 23,9 16 9 23 12 WNW 1020,3 24 0,0
21.05.2019 17:00:00 18,7 8,6 23,5 15 8 22 12 WNW 1020,2 22 0,0
21.05.2019 16:00:00 18,3 8,5 24,5 14 7 21 11 WNW 1020,3 34 0,0
21.05.2019 15:00:00 18,2 8,7 25,0 12 6 22 12 WNW 1020,3 32 0,0
21.05.2019 14:00:00 17,6 6,1 26,5 9 5 16 8 N 1020,3 20 0,0
21.05.2019 13:00:00 16,9 7,5 26,4 6 3 13 7 N 1020,4 12 0,0
21.05.2019 12:00:00 15,4 10,4 21,9 8 4 16 8 N 1020,2 8 0,0
21.05.2019 11:00:00 14,2 11,0 19,1 6 3 11 6 NNW 1020,4 15 0,0
21.05.2019 10:00:00 12,6 10,8 13,7 3 2 9 5 O 1020,0 8 0,0
21.05.2019 09:00:00 10,6 10,0 10,9 2 1 11 6 ONO 1019,6 0,3 0,0
21.05.2019 08:00:00 10,4 9,6 10,0 6 3 10 5 N 1019,3 2,0 0,0
21.05.2019 07:00:00 10,4 9,6 9,8 5 3 9 5 NNO 1018,8 3,5 0,0
21.05.2019 06:00:00 10,6 9,8 9,6 4 2 13 7 N 1018,7 3,4 0,0
21.05.2019 05:00:00 10,0 9,2 4,5 4 2 9 5 NNW 1018,4 3,7 0,0
21.05.2019 04:00:00 9,5 8,6 6,4 5 3 13 7 NW 1018,3 4,2 0,0
21.05.2019 03:00:00 10,0 9,1 6,5 9 5 13 7 NW 1018,2 4,2 0,0
21.05.2019 02:00:00 9,9 8,7 7,2 6 4 14 7 WNW 1018,3 7 0,0
21.05.2019 01:00:00 10,5 9,6 6,0 8 4 13 7 NW 1018,4 11 0,0
21.05.2019 00:00:00 9,6 8,2 5,7 8 5 13 7 NW 1018,3 31 0,0
20.05.2019 23:00:00 9,8 7,4 6,5 9 5 17 9 N 1018,0 55 0,0
20.05.2019 22:00:00 11,6 7,5 9,8 12 7 22 12 NNW 1017,2 60 0,0
20.05.2019 21:00:00 13,3 7,7 13,8 16 9 26 14 NNW 1016,9 40 0,0
20.05.2019 20:00:00 14,6 8,3 14,4 17 9 27 14 NNW 1016,4 54 0,0
20.05.2019 19:00:00 15,4 8,6 22,2 18 10 29 15 NNW 1016,2 20 0,0
20.05.2019 18:00:00 16,0 8,5 24,3 21 11 30 16 NNW 1015,9 30 0,0
20.05.2019 17:00:00 16,8 8,0 25,6 19 11 28 15 NW 1015,5 34 0,0
20.05.2019 16:00:00 16,7 8,1 25,6 18 10 33 18 NNW 1015,4 40 0,0
20.05.2019 15:00:00 17,0 8,2 24,0 14 7 23 13 NNW 1015,4 41 0,0

tt = temperatuur
td = dauwpunt
tt 5cm = temperatuur 5cm
ff = windsnelheid
fx = windstoten
dd = windrichting
ppp = luchtdruk
vv = zicht
rr = neerslag

Weerstations in de omgeving